Weather in Nauruzovo

Russia / Orenburg Oblast     53°17′27″N   54°09′08″E
temp.,
°C
wind,
m/s
gust,
m/s
humid.,
%
clouds,
%
prec.,
mm/h
press.,
hPa
HPBL,
m
3 march, wed
wed323:00−4sw81595100 1.7 1005649
02:00−3sw81396100 1.3 1003583
05:00−3sw61196100 2.3 1003443
08:00−4sw4797100 0.8 1002227
11:00−3wsw3497100 1.1 1003239
14:00−2w3493100 0.1 1002428
17:00−1w4588100 0.2 1002641
20:00−5w499795 0.1 1003215
4 march, thu
thu423:00−8wnw5109694 0.2 1004261
02:00−10wnw5119792 0.1 1005228
05:00−12wnw499794 0.1 1007138
08:00−14wsw469892 0.1 1007107
11:00−11sw6109696 0.1 1008286
14:00−7sw81393100 0.3 1006585
17:00−6sw91492100 0.5 1005695
20:00−5sw101794100 0.7 1003805
5 march, fri
fri523:00−2sw101795100 1.4 1003817
02:00−1wsw101696100 1.3 1003888
05:00−2wsw91595100 1.9 1003738
08:00−2sw91596100 1.1 1004732
11:00−2sw91496100 3.1 1004757
14:00−1sw101596100 1.2 1003928
17:00+1sw111799100 1.8 1002872
20:00+1wsw111698100 1.3 1002858
6 march, sat
sat623:00−4wnw61093100 1.8 1007362
02:00−9wnw349598 0.0 101168
05:00−12nw129399 0.0 101221
08:00−13n2286100 0.0 101320
11:00−10ne2382100 0.0 1012155
14:00−8ne4593100 0.4 1009332
17:00−8nne5794100 1.3 1009333
20:00−11nne4793100 0.1 1009230
7 march, sun
sun723:00−14n4693100 0.1 1010101
02:00−18nnw23900 0.0 101120
05:00−20nw12910 0.0 101320
08:00−21w11920 0.0 101420
11:00−15wsw238914 0.0 1015141
14:00−13wsw349199 0.1 1015316
17:00−12sw3493100 0.1 1015297
20:00−17ssw349856 0.0 101623